• In Hungary
  • List of Countries
  • For 7 days
  • Water Temperature
  • Satellite Maps
  • Weather Map
  • News
  • Weather Widgets
  • user-avatar
    Login

    Hourly Weather Olszanka

    Today, 16 July, Monday

    Time Temperature Precipitation Wind Pressure Humidity
    00:00 +16°C° 0 mm 3 mps 742 mmHg 91%
    01:00 +14°C° 0 mm 3 mps 742 mmHg 92%
    02:00 +14°C° 0.1 mm 3 mps 742 mmHg 91%
    03:00 +14°C° 0.1 mm 3 mps 742 mmHg 91%
    04:00 +14°C° 0.1 mm 3 mps 742 mmHg 90%
    05:00 +17°C° 0.1 mm 4 mps 742 mmHg 85%
    06:00 +19°C° 0.1 mm 4 mps 742 mmHg 79%
    07:00 +20°C° 0 mm 4 mps 742 mmHg 72%
    08:00 +22°C° 0.1 mm 4 mps 741 mmHg 67%
    09:00 +23°C° 0.1 mm 4 mps 741 mmHg 62%
    10:00 +26°C° 0.1 mm 5 mps 741 mmHg 57%
    11:00 +26°C° 0.2 mm 5 mps 741 mmHg 59%
    12:00 +26°C° 0.2 mm 5 mps 741 mmHg 59%
    13:00 +26°C° 0 mm 4 mps 741 mmHg 60%
    14:00 +25°C° 0.3 mm 4 mps 741 mmHg 63%
    15:00 +25°C° 0.3 mm 4 mps 741 mmHg 65%
    16:00 +25°C° 0.3 mm 4 mps 740 mmHg 68%
    17:00 +23°C° 0.3 mm 4 mps 740 mmHg 73%
    18:00 +21°C° 0.3 mm 3 mps 740 mmHg 78%
    19:00 +20°C° 0.3 mm 3 mps 740 mmHg 83%
    20:00 +20°C° 0.4 mm 3 mps 740 mmHg 86%
    21:00 +19°C° 0.4 mm 3 mps 740 mmHg 89%
    22:00 +18°C° 0.4 mm 2 mps 740 mmHg 93%
    23:00 +18°C° 0.2 mm 2 mps 739 mmHg 93%

    Tomorrow, 17 July, Tuesday

    Time Temperature Precipitation Wind Pressure Humidity
    00:00 +18°C° 0.2 mm 2 mps 739 mmHg 94%
    01:00 +18°C° 0.2 mm 2 mps 739 mmHg 94%
    02:00 +18°C° 0.2 mm 2 mps 739 mmHg 95%
    03:00 +18°C° 0.2 mm 2 mps 739 mmHg 95%
    04:00 +18°C° 0.2 mm 2 mps 739 mmHg 95%
    05:00 +18°C° 0.3 mm 2 mps 739 mmHg 94%
    06:00 +19°C° 0.3 mm 3 mps 739 mmHg 93%
    07:00 +20°C° 0.3 mm 3 mps 739 mmHg 91%
    08:00 +20°C° 0.9 mm 3 mps 738 mmHg 90%
    09:00 +20°C° 0.9 mm 4 mps 738 mmHg 89%
    10:00 +21°C° 0.9 mm 4 mps 738 mmHg 88%
    11:00 +21°C° 0.9 mm 4 mps 738 mmHg 88%
    12:00 +21°C° 0.9 mm 4 mps 738 mmHg 88%
    13:00 +21°C° 0.9 mm 4 mps 738 mmHg 89%
    14:00 +21°C° 0.8 mm 4 mps 738 mmHg 89%
    15:00 +21°C° 0.8 mm 5 mps 738 mmHg 89%
    16:00 +21°C° 0.8 mm 5 mps 738 mmHg 89%
    17:00 +20°C° 1 mm 4 mps 738 mmHg 91%
    18:00 +20°C° 1 mm 4 mps 738 mmHg 93%
    19:00 +19°C° 1 mm 4 mps 738 mmHg 96%
    20:00 +19°C° 0.9 mm 3 mps 738 mmHg 96%
    21:00 +19°C° 0.9 mm 3 mps 738 mmHg 96%
    22:00 +18°C° 0.9 mm 3 mps 738 mmHg 97%
    23:00 +18°C° 0.8 mm 3 mps 738 mmHg 97%

    Day after tomorrow, 18 July, Wednesday

    Time Temperature Precipitation Wind Pressure Humidity
    00:00 +18°C° 0.8 mm 3 mps 738 mmHg 97%
    01:00 +18°C° 0.8 mm 3 mps 738 mmHg 97%
    02:00 +18°C° 0.5 mm 3 mps 738 mmHg 97%
    03:00 +18°C° 0.5 mm 3 mps 738 mmHg 97%
    04:00 +18°C° 0.5 mm 3 mps 738 mmHg 97%
    05:00 +18°C° 0.1 mm 3 mps 738 mmHg 95%
    06:00 +19°C° 0.1 mm 2 mps 738 mmHg 94%
    07:00 +19°C° 0.1 mm 2 mps 738 mmHg 93%
    08:00 +20°C° 0.3 mm 3 mps 739 mmHg 90%
    09:00 +22°C° 0.3 mm 3 mps 739 mmHg 87%
    10:00 +24°C° 0.3 mm 3 mps 739 mmHg 84%
    11:00 +23°C° 0.8 mm 4 mps 739 mmHg 82%
    12:00 +25°C° 0.8 mm 4 mps 739 mmHg 81%
    13:00 +25°C° 0.8 mm 4 mps 739 mmHg 79%
    14:00 +25°C° 0.4 mm 4 mps 739 mmHg 81%
    15:00 +23°C° 0.4 mm 4 mps 739 mmHg 82%
    16:00 +23°C° 0.4 mm 4 mps 740 mmHg 83%
    17:00 +22°C° 0 mm 4 mps 740 mmHg 85%
    18:00 +21°C° 0 mm 4 mps 740 mmHg 87%
    19:00 +21°C° 0 mm 3 mps 740 mmHg 89%
    20:00 +20°C° 0.2 mm 3 mps 740 mmHg 91%
    21:00 +19°C° 0.2 mm 3 mps 740 mmHg 93%
    22:00 +19°C° 0.2 mm 3 mps 740 mmHg 95%
    23:00 +18°C° 0.2 mm 4 mps 740 mmHg 95%

    19 July, Thursday

    Time Temperature Precipitation Wind Pressure Humidity
    00:00 +18°C° 0.2 mm 4 mps 740 mmHg 95%
    01:00 +18°C° 0.2 mm 4 mps 740 mmHg 95%
    02:00 +18°C° 0.1 mm 4 mps 740 mmHg 95%
    03:00 +18°C° 0.1 mm 4 mps 740 mmHg 95%
    04:00 +18°C° 0.1 mm 3 mps 740 mmHg 95%
    05:00 +18°C° 0.1 mm 3 mps 740 mmHg 94%
    06:00 +19°C° 0.1 mm 3 mps 740 mmHg 93%
    07:00 +19°C° 0.1 mm 3 mps 740 mmHg 92%
    08:00 +19°C° 0.3 mm 3 mps 741 mmHg 91%
    09:00 +20°C° 0.3 mm 3 mps 741 mmHg 89%
    10:00 +20°C° 0.3 mm 3 mps 741 mmHg 88%
    11:00 +21°C° 0.4 mm 4 mps 741 mmHg 85%
    12:00 +21°C° 0.4 mm 4 mps 741 mmHg 82%
    13:00 +22°C° 0.4 mm 5 mps 741 mmHg 79%
    14:00 +22°C° 0.2 mm 5 mps 741 mmHg 79%
    15:00 +22°C° 0.2 mm 5 mps 741 mmHg 79%
    16:00 +21°C° 0.2 mm 5 mps 741 mmHg 79%
    17:00 +21°C° 0 mm 4 mps 741 mmHg 80%
    18:00 +20°C° 0 mm 4 mps 741 mmHg 81%
    19:00 +20°C° 0 mm 4 mps 741 mmHg 83%
    20:00 +19°C° 0 mm 4 mps 741 mmHg 84%
    21:00 +18°C° 0 mm 3 mps 741 mmHg 86%
    22:00 +18°C° 0 mm 3 mps 741 mmHg 88%
    23:00 +17°C° 0 mm 3 mps 741 mmHg 90%

    20 July, Friday

    Time Temperature Precipitation Wind Pressure Humidity
    00:00 +17°C° 0 mm 3 mps 741 mmHg 91%
    01:00 +16°C° 0 mm 3 mps 741 mmHg 93%
    02:00 +16°C° 0 mm 3 mps 741 mmHg 93%
    03:00 +16°C° 0 mm 3 mps 741 mmHg 92%
    04:00 +16°C° 0 mm 3 mps 741 mmHg 92%
    05:00 +17°C° 0 mm 3 mps 741 mmHg 87%
    06:00 +18°C° 0 mm 3 mps 741 mmHg 83%
    07:00 +20°C° 0 mm 3 mps 741 mmHg 78%
    08:00 +21°C° 0 mm 3 mps 741 mmHg 72%
    09:00 +23°C° 0 mm 4 mps 741 mmHg 67%
    10:00 +25°C° 0 mm 4 mps 741 mmHg 61%
    11:00 +25°C° 0.1 mm 4 mps 741 mmHg 59%
    12:00 +26°C° 0.1 mm 4 mps 741 mmHg 57%
    13:00 +26°C° 0.1 mm 5 mps 741 mmHg 56%
    14:00 +26°C° 0 mm 5 mps 741 mmHg 57%
    15:00 +25°C° 0 mm 5 mps 741 mmHg 59%
    16:00 +25°C° 0 mm 5 mps 741 mmHg 60%
    17:00 +22°C° 0 mm 5 mps 741 mmHg 64%
    18:00 +21°C° 0 mm 4 mps 741 mmHg 68%
    19:00 +20°C° 0 mm 4 mps 741 mmHg 72%
    20:00 +18°C° 0 mm 4 mps 741 mmHg 75%
    21:00 +17°C° 0 mm 3 mps 740 mmHg 77%
    22:00 +16°C° 0 mm 3 mps 740 mmHg 79%
    23:00 +14°C° 0 mm 3 mps 740 mmHg 80%

    21 July, Saturday

    Time Temperature Precipitation Wind Pressure Humidity
    00:00 +14°C° 0 mm 3 mps 740 mmHg 81%
    01:00 +14°C° 0 mm 3 mps 740 mmHg 81%
    02:00 +13°C° 0 mm 3 mps 740 mmHg 84%
    03:00 +13°C° 0 mm 3 mps 740 mmHg 88%
    04:00 +13°C° 0 mm 3 mps 740 mmHg 91%
    05:00 +14°C° 0 mm 3 mps 740 mmHg 86%
    06:00 +17°C° 0 mm 3 mps 740 mmHg 81%
    07:00 +19°C° 0 mm 4 mps 740 mmHg 77%
    08:00 +20°C° 0 mm 4 mps 740 mmHg 71%
    09:00 +21°C° 0 mm 4 mps 740 mmHg 65%
    10:00 +22°C° 0 mm 4 mps 740 mmHg 60%
    11:00 +24°C° 0 mm 3 mps 740 mmHg 57%
    12:00 +24°C° 0 mm 3 mps 740 mmHg 54%
    13:00 +25°C° 0 mm 3 mps 740 mmHg 52%
    14:00 +24°C° 0 mm 3 mps 740 mmHg 53%
    15:00 +24°C° 0 mm 3 mps 740 mmHg 54%
    16:00 +24°C° 0 mm 3 mps 740 mmHg 56%
    17:00 +21°C° 0 mm 3 mps 739 mmHg 61%
    18:00 +20°C° 0 mm 3 mps 739 mmHg 66%
    19:00 +19°C° 0 mm 2 mps 739 mmHg 71%
    20:00 +18°C° 0 mm 2 mps 739 mmHg 75%
    21:00 +16°C° 0 mm 2 mps 739 mmHg 78%
    22:00 +15°C° 0 mm 1 mps 739 mmHg 82%
    23:00 +15°C° 0 mm 1 mps 739 mmHg 82%
    Show more